SCP
4 4 5 5 4 4 6 7 7 6 6 6 7 7 7 7 6 5 4 4 5 5 4 5 5 5 5 5 6 6 5 5 5 4 3 2 2 2 2 2 2 2 2
4 4 5 5 5 4 5 6 7 6 6 6 6 7 6 6 5 4 4 4 5 4 4 4 4 4 4 4 5 5 5 4 5 4 3 2 2 2 2 2 2 2 2
4 4 5 5 5 4 4 5 5 5 5 5 5 6 6 6 5 4 3 3 4 4 4 3 3 3 3 3 3 4 4 4 5 5 4 2 2 2 2 3 3 2 2
3 3 3 4 4 5 5 4 4 4 4 4 4 5 6 7 6 5 4 3 3 3 3 3 3 2 2 2 2 3 3 4 4 5 4 3 2 2 2 3 3 2 2
2 3 3 3 4 5 5 4 4 4 4 4 4 5 5 7 7 6 4 3 2 2 2 2 2 2 2 2 2 3 3 3 4 4 4 4 3 3 2 2 2 2 2
2 2 3 3 4 5 5 4 4 4 4 4 4 5 5 6 6 5 4 3 2 2 2 2 2 2 2 2 2 2 2 3 3 3 4 4 3 3 2 2 2 2 2
2 2 2 3 3 4 4 4 4 3 3 4 4 4 5 5 5 4 3 2 2 2 2 2 2 2 2 2 2 2 2 2 3 3 3 4 4 3 2 2 2 2 2
2 2 2 2 2 2 2 2 2 2 2 3 4 4 5 5 5 4 3 2 2 2 2 2 2 2 2 2 2 2 1 2 2 2 2 3 3 3 3 3 3 3 2
1 1 1 1 1 1 1 2 2 2 2 3 3 4 4 5 5 4 3 3 2 2 2 1 1 1 2 2 2 1 1 1 1 2 2 2 3 3 4 4 3 3 3
1 1 1 1 1 1 2 2 2 2 2 2 3 3 3 4 4 4 3 3 3 3 2 1 1 1 1 2 2 1 1 1 1 1 2 2 2 3 3 4 3 3 3
1 1 1 1 1 1 2 2 2 2 2 3 3 3 3 3 3 3 3 4 4 3 2 2 1 1 1 1 1 1 1 1 1 1 1 2 2 2 3 3 3 3 3
1 1 1 1 1 1 1 1 1 2 2 3 3 3 3 3 2 3 3 4 4 3 2 2 1 1 1 1 1 1 1 1 1 1 1 1 2 2 3 3 3 3 4
1 1 1 1 1 1 1 1 1 2 2 2 3 3 3 3 3 3 3 3 4 3 2 2 1 1 1 1 1 1 1 1 1 1 1 1 2 2 2 3 3 3 3
1 1 1 1 1 1 1 1 1 2 2 2 2 2 2 2 3 3 3 3 3 3 2 2 1 1 1 0 0 1 1 1 1 1 1 1 1 2 2 2 2 3 3
1 1 1 0 0 0 1 1 1 1 1 1 1 1 1 1 2 2 2 3 3 3 2 2 2 1 1 0 0 0 1 1 1 1 1 1 1 1 1 2 2 2 2
1 1 0 0 0 0 0 0 0 0 0 0 0 0 0 1 1 1 1 2 3 3 2 2 2 2 1 0 0 0 0 1 1 1 1 1 1 1 1 1 1 1 2
1 1 0 0 0 1 0 0 0 0 0 0 0 0 0 0 0 1 1 1 2 2 2 2 2 2 1 0 0 0 0 1 1 1 1 1 1 1 1 1 1 1 1
1 1 0 0 0 0 0 0 0 0 0 0 0 0 0 0 0 0 0 1 1 2 2 2 2 2 1 0 0 0 0 1 1 0 0 0 1 1 1 1 1 0 0
1 1 0 0 0 0 0 0 0 0 0 0 0 0 0 0 0 0 0 1 1 1 1 1 1 2 1 0 0 0 0 0 0 0 0 0 0 0 0 0 0 0 0
0 0 0 0 0 0 0 0 0 0 0 0 0 0 0 0 1 1 1 1 1 1 1 1 1 1 1 0 0 0 0 0 0 0 0 0 0 0 0 0 0 0 0
0 0 0 0 0 0 0 0 0 0 0 0 0 0 0 0 0 1 1 1 1 1 0 0 0 1 1 0 0 0 0 0 0 0 0 0 0 0 0 0 0 0 0
0 0 0 0 0 0 0 0 0 0 0 0 0 0 0 0 0 1 1 1 1 0 0 0 0 0 0 0 0 0 0 0 0 0 0 0 0 0 0 0 0 0 0
0 0 0 0 0 0 0 0 0 0 0 0 0 0 0 0 0 1 1 0 0 0 0 0 0 0 0 0 0 0 0 0 0 0 0 0 0 0 0 0 0 0 0
0 0 0 0 0 0 0 0 1 1 1 1 0 0 0 0 0 0 0 0 0 0 0 0 0 0 0 0 0 0 0 0 0 0 0 0 0 0 0 0 0 0 0
0 0 0 0 0 0 0 0 0 1 1 1 0 0 0 0 0 0 0 0 0 0 0 0 0 0 0 0 0 0 0 0 0 0 0 0 0 0 0 0 0 0 0
0 0 0 0 0 0 0 0 0 1 1 1 0 0 0 0 0 0 0 0 0 0 0 0 0 0 0 0 0 0 0 0 0 0 0 0 0 1 1 1 0 0 0
Wind_Speed
3 3 3 2 3 3 2 0 0 1 1 1 2 2 2 2 2 2 2 3 4 4 4 4 3 5 4 4 5 5 5 5 3 4 5 5 6 6 5 5 5 5 6
3 3 3 2 2 2 2 1 0 1 1 1 2 2 2 2 2 2 3 3 3 4 4 4 4 4 4 4 5 5 5 4 3 4 5 4 4 5 5 4 5 5 5
2 2 2 2 2 2 1 2 1 2 2 2 2 2 2 3 2 3 2 2 4 4 4 5 5 4 5 4 5 5 6 5 4 4 4 5 4 3 3 4 4 5 5
2 3 3 2 2 1 1 2 2 2 2 3 3 3 3 3 2 2 2 3 4 4 5 5 5 5 5 4 6 4 5 6 5 4 5 5 5 4 3 4 4 5 6
3 4 3 2 2 2 2 2 2 2 3 3 2 3 3 3 2 2 2 4 3 4 4 4 4 5 5 5 5 5 5 5 6 5 4 5 4 6 5 5 4 4 5
3 4 4 3 3 3 2 2 1 2 2 2 2 3 4 4 3 3 3 3 3 3 4 4 4 4 4 4 5 5 6 5 6 5 5 5 4 5 5 5 5 5 5
3 3 4 4 4 4 4 3 3 3 3 3 3 2 3 4 4 4 3 4 3 3 3 4 4 4 4 5 5 5 5 6 6 6 5 5 5 4 5 5 5 6 5
3 3 4 3 3 4 4 4 4 4 4 3 3 2 3 3 3 3 4 4 3 3 4 4 4 4 5 5 5 5 5 4 5 5 5 4 4 4 5 5 5 6 5
3 3 4 4 4 4 4 5 4 4 4 4 3 3 3 3 4 4 4 3 3 3 4 4 4 4 4 4 4 4 4 4 5 5 5 5 4 5 5 5 5 6 7
2 3 3 4 4 4 4 4 5 5 5 5 4 3 3 3 3 4 4 4 4 4 4 4 4 3 4 4 4 4 3 4 4 4 5 5 5 4 5 5 5 6 7
2 2 3 3 3 4 4 4 5 5 5 5 4 4 4 4 4 4 4 4 4 4 4 4 4 4 4 4 4 5 4 5 4 5 5 5 5 4 4 4 5 5 6
3 2 3 3 3 4 4 4 5 5 5 6 5 4 4 4 4 4 4 4 4 4 4 4 4 4 4 4 4 5 5 4 5 5 5 5 5 5 5 4 5 5 5
3 3 3 3 4 4 4 4 5 5 5 6 5 5 4 4 5 5 5 5 4 4 4 4 4 4 4 4 4 5 5 5 5 5 5 6 6 6 5 5 5 5 5
3 4 4 4 4 4 4 4 5 5 5 5 5 5 5 4 5 5 5 5 4 3 4 4 4 4 4 5 5 5 5 5 5 5 5 6 6 6 6 5 6 6 6
4 5 5 5 5 4 4 5 5 5 5 6 5 5 5 5 5 5 5 5 4 4 3 3 3 4 4 4 6 6 6 5 5 5 5 5 5 5 6 6 5 6 6
5 5 5 5 5 5 5 5 5 5 5 5 5 5 5 4 4 5 5 4 4 4 3 3 3 3 3 5 6 7 6 5 5 5 5 5 5 6 7 8 8 7 7
6 6 6 5 5 5 5 5 5 5 5 5 6 5 5 4 4 5 5 4 4 4 4 3 3 3 3 5 5 7 7 6 4 5 5 5 4 5 6 6 8 9 9
6 6 6 5 5 5 5 5 5 5 5 5 5 5 5 4 4 4 4 4 4 4 3 4 4 4 4 4 5 8 6 5 5 5 5 5 5 4 6 7 6 6 5
6 6 5 5 5 5 5 5 5 5 5 5 5 5 5 4 4 4 4 4 4 4 4 4 4 4 4 4 5 7 5 3 4 4 4 5 5 3 5 6 6 6 5
5 5 5 5 5 5 5 5 5 5 5 5 5 4 4 4 4 4 5 4 4 4 4 4 4 4 4 3 4 6 4 4 4 3 3 2 3 4 4 5 5 6 6
5 5 5 5 4 5 5 5 5 5 6 5 4 4 3 3 4 4 4 4 4 4 4 4 4 3 4 3 3 5 5 5 5 4 4 3 3 3 4 5 4 5 7
5 5 5 4 4 4 5 6 5 5 5 4 3 3 4 4 3 4 4 4 4 4 3 3 4 2 2 3 3 3 4 7 6 5 5 4 4 4 4 3 4 6 7
4 5 5 5 5 4 5 6 5 5 4 4 3 3 3 4 4 5 4 4 4 4 4 3 3 3 3 2 2 3 4 5 4 4 4 4 3 4 3 2 4 5 4
4 5 5 6 6 5 5 5 5 4 4 4 3 3 3 3 3 4 4 4 4 4 4 4 4 3 3 4 4 3 2 3 3 3 2 4 4 4 3 2 2 2 3
4 5 6 6 6 5 5 4 4 4 4 4 4 4 3 3 3 3 3 4 3 4 5 5 4 4 4 5 7 6 5 6 6 7 4 3 2 2 2 2 3 3 3
4 5 6 6 6 5 5 5 4 4 4 4 4 3 3 3 3 3 2 0 2 1 2 3 5 3 4 4 5 6 6 6 7 6 3 3 3 3 3 3 3 3 3
Wind_Direction
56 53 57 61 64 55 49 70 195 152 227 226 234 231 239 247 248 251 246 252 258 260 266 278 269 266 262 260 259 262 261 259 269 273 264 249 235 240 243 244 251 247 248
53 44 36 53 55 50 38 11 307 231 246 259 262 256 268 260 258 270 243 244 256 260 258 269 270 267 273 259 257 257 273 268 247 263 272 264 235 219 235 238 238 253 259
22 29 26 24 32 39 15 360 343 282 273 286 257 252 243 252 243 263 251 253 263 261 274 269 272 272 267 266 265 261 263 269 253 248 269 276 274 281 226 236 244 252 260
18 15 22 22 13 22 37 16 347 311 290 274 258 256 257 264 279 279 286 274 261 263 264 267 269 272 274 274 266 269 273 263 257 243 247 268 293 278 268 235 237 243 248
14 12 16 17 17 28 31 22 7 310 288 280 268 263 273 287 284 275 273 270 270 268 266 269 273 271 273 277 281 274 264 263 262 258 250 248 247 252 266 271 266 256 248
25 21 25 32 30 30 17 12 19 331 314 301 291 282 289 291 286 278 275 270 269 270 276 278 277 278 283 280 273 270 260 269 270 266 258 253 251 250 254 266 264 265 264
47 36 31 34 26 17 8 357 0 346 334 325 309 300 293 282 271 278 278 281 282 280 289 291 286 285 282 277 274 269 269 266 262 255 256 259 260 267 267 267 272 274 273
52 42 34 33 23 12 4 353 348 339 336 332 318 314 301 291 284 283 292 288 291 296 296 288 282 283 283 280 276 270 265 265 261 257 257 260 264 269 270 268 274 276 272
44 37 31 27 22 14 7 354 348 341 334 334 329 323 313 317 314 298 283 289 298 295 292 292 288 286 286 288 285 279 275 270 263 254 244 253 259 261 267 265 262 271 280
36 35 24 19 17 12 5 356 353 348 341 340 334 334 326 320 314 304 306 309 306 301 291 287 285 279 280 281 277 271 260 259 259 260 261 262 261 261 258 258 263 262 267
11 19 13 5 4 6 4 359 357 349 340 337 338 338 332 334 325 318 311 307 301 298 296 297 296 290 287 286 282 280 276 268 264 262 260 262 270 270 272 266 264 266 265
8 12 5 356 354 359 358 357 351 342 338 337 334 336 333 331 324 323 318 310 305 301 301 301 296 291 296 298 291 286 288 279 276 271 269 268 261 261 265 267 267 268 269
0 357 357 348 347 349 345 346 340 337 333 333 333 331 327 330 326 325 321 317 313 308 303 299 297 298 300 300 295 291 286 283 283 280 276 275 271 268 267 264 268 269 266
353 344 343 340 337 334 333 334 332 331 329 327 324 329 329 328 324 322 318 316 318 315 310 309 309 305 305 310 305 294 288 284 282 278 278 278 276 276 276 267 265 268 271
341 335 333 332 325 325 323 326 325 323 321 320 321 324 328 330 323 320 320 319 321 322 323 318 318 317 318 328 319 304 292 287 283 279 278 278 281 290 283 284 285 279 275
338 333 329 325 320 317 317 319 318 319 317 318 319 321 322 321 322 323 323 324 328 328 327 330 332 330 340 342 322 306 300 294 290 291 289 281 268 266 254 260 266 272 274
330 327 325 320 319 314 313 312 313 312 310 310 310 311 308 313 320 323 332 335 328 325 328 327 323 320 334 332 319 311 300 298 298 296 294 293 299 288 288 267 245 247 244
325 325 323 320 314 310 308 306 302 302 304 303 306 314 313 314 319 325 334 331 323 321 321 320 316 310 332 338 323 311 288 297 295 295 300 301 301 319 312 300 291 281 264
323 318 313 311 310 309 310 305 301 304 305 307 310 315 319 318 321 326 327 326 321 319 316 315 314 316 328 347 330 316 295 301 302 300 307 304 303 347 317 295 295 294 289
319 317 314 311 312 319 316 309 307 309 311 311 308 307 311 316 320 322 320 320 316 316 316 324 320 321 329 3 341 315 304 315 310 303 293 354 330 338 323 298 301 305 312
316 313 311 313 318 318 312 308 315 315 316 316 315 312 312 312 314 317 316 312 308 314 316 318 318 324 331 348 351 329 318 320 315 318 324 10 36 345 322 301 308 314 306
320 320 317 318 316 312 307 305 310 312 311 311 312 316 316 314 317 312 309 309 305 298 307 314 315 324 333 347 349 314 304 312 313 319 335 2 5 326 312 311 325 307 293
320 321 317 314 310 310 307 306 313 312 305 303 304 309 313 316 315 310 307 300 295 301 317 322 328 338 352 5 316 283 280 289 296 320 336 327 309 293 272 268 292 293 304
313 317 312 310 316 319 313 305 307 306 301 299 297 292 295 302 312 311 311 309 313 314 318 321 327 338 346 352 342 327 308 273 277 298 277 229 243 260 282 284 275 310 333
313 313 309 310 313 313 307 304 309 302 299 298 295 294 295 308 306 305 316 312 337 338 320 324 325 333 342 358 350 334 338 337 339 317 303 318 321 322 333 330 330 328 329
305 307 306 308 311 310 309 310 308 299 296 291 288 293 299 299 293 295 285 270 276 282 270 293 309 338 346 331 332 325 314 306 303 301 326 344 345 343 344 337 336 341 342